Torna al catalogo

FENGYUN 1C DEB

AttivoPO
NORAD 36225·DEBRIS·🇨🇳 China

Lanciato May 10, 1999 da Taiyuan Satellite Launch Center

Loading…

Prossimi Passaggi (prossime 24 ore)

TLE

AggiornatoSource: Space-Track

Epoca: Sep 14, 2026, 17:42 UTC

1 36225U 99025DVA 26257.73783229  .00081372  00000-0  21430-2 0  9999
2 36225  98.8286  71.2378 0019758  80.1508 280.1962 15.38027102709688

Traccia FENGYUN 1C DEB in tempo reale con AllMySat

Download on the App Store